ONEWEB-0507, 54125

Orbit data source: Space-Track

ONEWEB-0507, 54125 is a payload satellite owned by One Web (NAA) (UK) in LEO that was launched on Sat, 22 Oct 2022 UTC via a LVM3 launch vehicle from the Sirharikota (SRI). Payload-class satellites include a variety of spacecraft equipped with specific instruments for various scientific and technological missions. These include communications satellites like Starlink; space stations such as the ISS; scientific satellites like the Hubble; Earth observation satellites from companies like Planet Labs, Umbra, and HawkEye 360; GPS; miniature CubeSats for education and research; and military/defense satellites.

Loading next visibility...
Identifier
54125, 2022-138N
Orbit
LEO
Country
Flag of UKUK
Related business
Manufacturer
One Web
Mission
Operational Commercial Communications
Bus & Motor
ARROW, Unknown motor
Mass
148 kg wet, ~140 kg dry
Launch date (UTC)
2022-10-22 (4 years ago)
Launch vehicle
LVM3
Launch site
Sirharikota (SRI)
Object type
Payload
Rocket body
Debris
Shape & HBR
Trap Box + 2 Pan, 6.7 m
Radar Cross Section
3.464 m², Large (>1 m²)

Expand to show TLE details & history
Last TLE update: 2 days ago

TLE from 2 days ago
0 ONEWEB-0507
1 54125U 22138N   26171.38049551  .00000095  00000-0  20613-3 0  9994
2 54125  87.9173 304.3391 0001711 103.3346 256.7978 13.19725770177277
Epoch: 2026-06-20T09:07Z
TLE epoch observation values (Epoch: 2026-06-20T09:07:54.812Z)
Latitude
0.00004°
Longitude
-101.23523°
Altitude
1,188.965 km
Speed
7.259 km/s
True Right ascension
20h 17m 21s
True Declination
0° 00' 00"
Sunlit
Object was in full shadow at epoch
Visualization orbit readout
Latitude
Unknown
Longitude
Unknown
Altitude
Unknown
Speed
Unknown
Apparent Right ascension
Unknown
Apparent Declination
Unknown
Sunlit
N/A
Visualization observer readout
Local Sidereal Time
21:33:55
Azimuth
Unknown
Elevation
Unknown
Doppler factor
Unknown
Orbital elements
Apogee altitude
1,184.167 km
Perigee altitude
1,181.58 km
Semi-major axis
7,561.01 km
Eccentricity
0.00017
Inclination
87.9173°
RAAN
304.3391°
Arg. of periapsis
103.3346°
True anomaly
256.77871°
Mean anomaly
256.7978°
Eccentric anomaly
256.78826°
Mean motion
3.30121 °/min
Orbital period
109.05 mins
BSTAR
0.00020613
Loading maneuver chart data...
Computing Atmospheric mass density...
Loading historical data...
Loading historical data...
Loading historical data...
Loading historical data...
Loading historical data...
Loading historical data...
Loading historical data...

Documentation

Showing up to 5 results
|